093  
ASUS41 KPHI 110412  
RWRPHI  
 
REGIONAL WEATHER ROUNDUP  
NATIONAL WEATHER SERVICE MOUNT HOLLY NJ  
1100 PM EST WED FEB 10 2016  
 
NOTE: "FAIR" INDICATES FEW OR NO CLOUDS BELOW 12,000 FEET WITH NO  
SIGNIFICANT WEATHER AND/OR S TO VISIBILITY
.  
 
* = STATION DOES NOT REPORT PRECIPITATION (E.G. RAIN, SNOW, ETC.)  
OR FOG.
 
 
NJZ015>026-110500-  
SOUTHERN NEW JERSEY  
 
CITY SKY/WX TMP DP RH WIND PRES REMARKS
 
POMONA CLOUDY 30 15 53 W12 29.82R WCI 20  
WILDWOOD* CLOUDY 30 16 55 W15G22 29.86R WCI 19  
MILLVILLE CLOUDY 29 15 56 W17G24 29.85R WCI 17  
WRIGHTSTOWN CLOUDY 29 15 55 NW15G21 29.77S WCI 18  
TRENTON CLOUDY 29 13 51 W9G21 29.79S WCI 20  
 

 
NJZ001>014-110500-  
NORTHERN NEW JERSEY  
 
CITY SKY/WX TMP DP RH WIND PRES REMARKS
 
SUSSEX CLOUDY 30 16 56 W3 29.73R  
ANDOVER* N/A 27 14 58 W9 29.74R WCI 18  
MORRISTOWN CLOUDY 30 14 51 W6 29.76S WCI 24  
NEWARK CLOUDY 31 15 52 W16G25 29.76R WCI 20  
TETERBORO CLOUDY 31 15 52 W9 29.75R WCI 23  
CALDWELL CLOUDY 31 14 49 W10G16 29.76R WCI 22  
SOMERVILLE CLOUDY 29 14 53 W8 29.77R WCI 21  
ALLAIRE* CLOUDY 30 10 43 W14G21 29.77R WCI 20  
TOMS RIVER* CLOUDY 30 12 47 W18 29.79S WCI 18  
 

 
PAZ043-044-047-054-055-060>062-066>071-110500-  
EASTERN PENNSYLVANIA  
 
CITY SKY/WX TMP DP RH WIND PRES REMARKS
 
PHILADELPHIA CLOUDY 29 10 45 W20G31 29.85R WCI 16  
NORTH PHILA CLOUDY 28 13 53 NW17G28 29.84R WCI 16  
BLUE BELL* N/A 27 14 59 W12G18 29.82R WCI 16  
DOYLESTOWN CLOUDY 24 13 62 W13G22 29.80R WCI 12  
PERKASIE* CLOUDY 25 14 63 W14G22 29.81R WCI 13  
POTTSTOWN CLOUDY 24 12 60 W8G18 29.84R WCI 15  
LANCASTER PTCLDY 21 10 62 W10 29.85S WCI 10  
COATESVILLE FLURRIES 23 14 68 W16 29.84R WCI 10  
READING CLOUDY 25 11 55 W13 29.83R WCI 14  
ALLENTOWN LGT SNOW 25 15 66 W10 29.81R FOG WCI 15  
MOUNT POCONO LGT SNOW 18 12 77 W15G22 29.66R WCI 4  
HAZLETON LGT SNOW 19 14 79 W8G17 29.75R WCI 9  
LEHIGHTON CLOUDY 25 16 68 W10 29.81R WCI 15  
WILKES BARRE HVY SNOW 21 18 88 W8 29.75R VSB 1/4 WCI 11  
 

 
DEZALL-MDZ008-012-015-019-020-110500-  
DELAWARE AND EASTERN MARYLAND  
 
CITY SKY/WX TMP DP RH WIND PRES REMARKS
 
WILMINGTON CLOUDY 26 14 60 W17 29.88R WCI 13  
DOVER CLOUDY 28 15 57 W17G26 29.87R WCI 15  
GEORGETOWN CLOUDY 29 15 56 W12G24 29.89R WCI 19  
EASTON CLOUDY 28 13 53 NW20G25 29.95R WCI 15  
PATUXENT CLOUDY 27 11 51 W15G24 29.94R WCI 15  
OCEAN CITY CLOUDY 30 16 56 NW17G24 29.88R WCI 18  
WALLOPS ISLAND CLOUDY 27 22 81 NW10 29.91R WCI 17  
CAMBRIDGE CLOUDY 28 14 54 NW12G18 29.92R WCI 18  
SALISBURY CLOUDY 28 15 58 NW17G24 29.90R WCI 16  
 

 
PAZ001-021-NYZ056-072-MDZ011-DCZ001-110500-  
OTHER NEARBY LOCATIONS  
 
CITY SKY/WX TMP DP RH WIND PRES REMARKS
 
HARRISBURG MOCLDY 24 12 60 W14G26 29.87R WCI 12  
STATE COLLEGE CLOUDY 18 9 65 W13 29.82R WCI 5  
WILLIAMSPORT CLOUDY 22 8 55 NW14 29.83R WCI 9  
BINGHAMTON CLOUDY 18 6 59 W12 29.68R WCI 5  
NEW YORK CITY CLOUDY 31 15 52 W7G20 29.77R WCI 24  
BALTIMORE MOCLDY 24 12 60 W17G24 29.92R WCI 11  
WASHINGTON DC FAIR 26 9 48 W14 29.96R WCI 14  
 

 
 
 
CLICK HERE TO GO TO PREVIOUS BULLETINS.

The Nexlab PA Page
The Nexlab NJ Page
The Nexlab DE Page
The Nexlab MD Page Main Text Page